Time,TemperatureF,DewpointF,PressureIn,WindDirection,WindDirectionDegrees,WindSpeedMPH,WindSpeedGustMPH,Humidity,HourlyPrecipIn,Conditions,Clouds,dailyrainin,SolarRadiationWatts/m^2,SoftwareType,DateUTC
2013-03-24 00:02:00,25.0,16.0,-100.00,ESE,119,3.0,5.0,69,0.00,,,0.00,1.000000,,2013-03-24 05:02:00,
2013-03-24 00:12:00,25.0,16.0,-100.00,ESE,119,3.0,5.0,69,0.00,,,0.00,1.000000,,2013-03-24 05:12:00,
2013-03-24 00:32:00,23.0,19.0,-100.00,SE,133,3.0,4.0,83,0.00,,,0.00,1.000000,,2013-03-24 05:32:00,
2013-03-24 00:43:00,23.0,19.0,-100.00,SE,133,3.0,4.0,83,0.00,,,0.00,1.000000,,2013-03-24 05:43:00,
2013-03-24 00:52:00,23.0,19.0,-100.00,SE,133,3.0,4.0,83,0.00,,,0.00,1.000000,,2013-03-24 05:52:00,
2013-03-24 01:02:00,23.0,19.0,-100.00,SE,133,3.0,4.0,83,0.00,,,0.00,1.000000,,2013-03-24 06:02:00,
2013-03-24 01:12:00,23.0,19.0,-100.00,SE,133,3.0,4.0,83,0.00,,,0.00,1.000000,,2013-03-24 06:12:00,
2013-03-24 01:32:00,23.0,20.0,-100.00,SE,137,2.0,4.0,88,0.00,,,0.00,0.000000,,2013-03-24 06:32:00,
2013-03-24 01:42:00,23.0,20.0,-100.00,SE,137,2.0,4.0,88,0.00,,,0.00,0.000000,,2013-03-24 06:42:00,
2013-03-24 01:52:00,23.0,20.0,-100.00,SE,137,2.0,4.0,88,0.00,,,0.00,0.000000,,2013-03-24 06:52:00,
2013-03-24 02:02:00,23.0,20.0,-100.00,SE,137,2.0,4.0,88,0.00,,,0.00,0.000000,,2013-03-24 07:02:00,
2013-03-24 02:12:00,23.0,20.0,-100.00,SE,137,2.0,4.0,88,0.00,,,0.00,0.000000,,2013-03-24 07:12:00,
2013-03-24 02:32:00,21.0,19.0,-100.00,ESE,122,3.0,4.0,91,0.00,,,0.00,1.000000,,2013-03-24 07:32:00,
2013-03-24 02:42:00,21.0,19.0,-100.00,ESE,122,3.0,4.0,91,0.00,,,0.00,1.000000,,2013-03-24 07:42:00,
2013-03-24 02:52:00,21.0,19.0,-100.00,ESE,122,3.0,4.0,91,0.00,,,0.00,1.000000,,2013-03-24 07:52:00,
2013-03-24 03:03:00,21.0,19.0,-100.00,ESE,122,3.0,4.0,91,0.00,,,0.00,1.000000,,2013-03-24 08:03:00,
2013-03-24 03:12:00,21.0,19.0,-100.00,ESE,122,3.0,4.0,91,0.00,,,0.00,1.000000,,2013-03-24 08:12:00,
2013-03-24 03:32:00,21.0,20.0,-100.00,SE,138,2.0,4.0,94,0.00,,,0.00,0.000000,,2013-03-24 08:32:00,
2013-03-24 03:42:00,21.0,20.0,-100.00,SE,138,2.0,4.0,94,0.00,,,0.00,0.000000,,2013-03-24 08:42:00,
2013-03-24 03:52:00,21.0,20.0,-100.00,SE,138,2.0,4.0,94,0.00,,,0.00,0.000000,,2013-03-24 08:52:00,
2013-03-24 04:02:00,21.0,20.0,-100.00,SE,138,2.0,4.0,94,0.00,,,0.00,0.000000,,2013-03-24 09:02:00,
2013-03-24 04:12:00,21.0,20.0,-100.00,SE,138,2.0,4.0,94,0.00,,,0.00,0.000000,,2013-03-24 09:12:00,
2013-03-24 04:33:00,22.0,21.0,-100.00,East,101,2.0,3.0,95,0.00,,,0.00,0.000000,,2013-03-24 09:33:00,
2013-03-24 04:43:00,22.0,21.0,-100.00,East,101,2.0,3.0,95,0.00,,,0.00,0.000000,,2013-03-24 09:43:00,
2013-03-24 04:52:00,22.0,21.0,-100.00,East,101,2.0,3.0,95,0.00,,,0.00,0.000000,,2013-03-24 09:52:00,
2013-03-24 05:03:00,22.0,21.0,-100.00,East,101,2.0,3.0,95,0.00,,,0.00,0.000000,,2013-03-24 10:03:00,
2013-03-24 05:12:00,22.0,21.0,-100.00,East,101,2.0,3.0,95,0.00,,,0.00,0.000000,,2013-03-24 10:12:00,
2013-03-24 05:42:00,22.0,20.0,-100.00,NE,35,1.0,5.0,92,0.00,,,0.00,0.000000,,2013-03-24 10:42:00,
2013-03-24 05:52:00,22.0,20.0,-100.00,NE,35,1.0,5.0,92,0.00,,,0.00,0.000000,,2013-03-24 10:52:00,
2013-03-24 06:03:00,22.0,20.0,-100.00,NE,35,1.0,5.0,92,0.00,,,0.00,0.000000,,2013-03-24 11:03:00,
2013-03-24 06:12:00,22.0,20.0,-100.00,NE,35,1.0,5.0,92,0.00,,,0.00,0.000000,,2013-03-24 11:12:00,
2013-03-24 06:33:00,22.0,18.0,-100.00,ENE,72,2.0,4.0,86,0.00,,,0.00,0.000000,,2013-03-24 11:33:00,
2013-03-24 06:42:00,22.0,18.0,-100.00,ENE,72,2.0,4.0,86,0.00,,,0.00,0.000000,,2013-03-24 11:42:00,
2013-03-24 06:52:00,22.0,18.0,-100.00,ENE,72,2.0,4.0,86,0.00,,,0.00,0.000000,,2013-03-24 11:52:00,
2013-03-24 07:02:00,22.0,18.0,-100.00,ENE,72,2.0,4.0,86,0.00,,,0.00,0.000000,,2013-03-24 12:02:00,
2013-03-24 07:12:00,22.0,18.0,-100.00,ENE,72,2.0,4.0,86,0.00,,,0.00,0.000000,,2013-03-24 12:12:00,
2013-03-24 07:32:00,22.0,18.0,-100.00,ENE,69,2.0,5.0,85,0.00,,,0.00,1.000000,,2013-03-24 12:32:00,
2013-03-24 07:42:00,22.0,18.0,-100.00,ENE,69,2.0,5.0,85,0.00,,,0.00,1.000000,,2013-03-24 12:42:00,
2013-03-24 07:52:00,22.0,18.0,-100.00,ENE,69,2.0,5.0,85,0.00,,,0.00,1.000000,,2013-03-24 12:52:00,
2013-03-24 08:02:00,22.0,18.0,-100.00,ENE,69,2.0,5.0,85,0.00,,,0.00,1.000000,,2013-03-24 13:02:00,
2013-03-24 08:12:00,22.0,18.0,-100.00,ENE,69,2.0,5.0,85,0.00,,,0.00,1.000000,,2013-03-24 13:12:00,
2013-03-24 08:43:00,22.0,17.0,-100.00,ENE,72,4.0,8.0,81,0.00,,,0.00,19.000000,,2013-03-24 13:43:00,
2013-03-24 08:52:00,22.0,17.0,-100.00,ENE,72,4.0,8.0,81,0.00,,,0.00,19.000000,,2013-03-24 13:52:00,
2013-03-24 09:02:00,22.0,17.0,-100.00,ENE,72,4.0,8.0,81,0.00,,,0.00,19.000000,,2013-03-24 14:02:00,
2013-03-24 09:12:00,22.0,17.0,-100.00,ENE,72,4.0,8.0,81,0.00,,,0.00,19.000000,,2013-03-24 14:12:00,
2013-03-24 09:33:00,24.0,17.0,-100.00,ENE,64,4.0,10.0,74,0.00,,,0.00,80.000000,,2013-03-24 14:33:00,
2013-03-24 09:43:00,24.0,17.0,-100.00,ENE,64,4.0,10.0,74,0.00,,,0.00,80.000000,,2013-03-24 14:43:00,
2013-03-24 09:52:00,24.0,17.0,-100.00,ENE,64,4.0,10.0,74,0.00,,,0.00,80.000000,,2013-03-24 14:52:00,
2013-03-24 10:02:00,24.0,17.0,-100.00,ENE,64,4.0,10.0,74,0.00,,,0.00,80.000000,,2013-03-24 15:02:00,
2013-03-24 10:12:00,24.0,17.0,-100.00,ENE,64,4.0,10.0,74,0.00,,,0.00,80.000000,,2013-03-24 15:12:00,
2013-03-24 10:43:00,26.0,17.0,-100.00,NE,49,4.0,11.0,68,0.00,,,-99.99,148.000000,,2013-03-24 15:43:00,
2013-03-24 10:53:00,26.0,17.0,-100.00,NE,49,4.0,11.0,68,0.00,,,-99.99,148.000000,,2013-03-24 15:53:00,
2013-03-24 11:03:00,26.0,17.0,-100.00,NE,49,4.0,11.0,68,0.00,,,-99.99,148.000000,,2013-03-24 16:03:00,
2013-03-24 11:12:00,26.0,17.0,-100.00,NE,49,4.0,11.0,68,0.00,,,-99.99,148.000000,,2013-03-24 16:12:00,
2013-03-24 11:43:00,27.0,15.0,-100.00,NE,51,5.0,10.0,60,0.00,,,0.00,208.000000,,2013-03-24 16:43:00,
2013-03-24 11:52:00,27.0,15.0,-100.00,NE,51,5.0,10.0,60,0.00,,,0.00,208.000000,,2013-03-24 16:52:00,
2013-03-24 12:02:00,27.0,15.0,-100.00,NE,51,5.0,10.0,60,0.00,,,0.00,208.000000,,2013-03-24 17:02:00,
2013-03-24 12:12:00,27.0,15.0,-100.00,NE,51,5.0,10.0,60,0.00,,,0.00,208.000000,,2013-03-24 17:12:00,
2013-03-24 12:33:00,27.0,16.0,-100.00,NE,48,6.0,11.0,62,0.00,,,0.00,227.000000,,2013-03-24 17:33:00,
2013-03-24 12:43:00,27.0,16.0,-100.00,NE,48,6.0,11.0,62,0.00,,,0.00,227.000000,,2013-03-24 17:43:00,
2013-03-24 12:53:00,27.0,16.0,-100.00,NE,48,6.0,11.0,62,0.00,,,0.00,227.000000,,2013-03-24 17:53:00,
2013-03-24 13:03:00,27.0,16.0,-100.00,NE,48,6.0,11.0,62,0.00,,,0.00,227.000000,,2013-03-24 18:03:00,
2013-03-24 13:12:00,27.0,16.0,-100.00,NE,48,6.0,11.0,62,0.00,,,0.00,227.000000,,2013-03-24 18:12:00,
2013-03-24 13:33:00,27.0,16.0,-100.00,ENE,67,5.0,10.0,63,0.00,,,0.00,232.000000,,2013-03-24 18:33:00,
2013-03-24 13:43:00,27.0,16.0,-100.00,ENE,67,5.0,10.0,63,0.00,,,0.00,232.000000,,2013-03-24 18:43:00,
2013-03-24 13:52:00,27.0,16.0,-100.00,ENE,67,5.0,10.0,63,0.00,,,0.00,232.000000,,2013-03-24 18:52:00,
2013-03-24 14:02:00,27.0,16.0,-100.00,ENE,67,5.0,10.0,63,0.00,,,0.00,232.000000,,2013-03-24 19:02:00,
2013-03-24 14:12:00,27.0,16.0,-100.00,ENE,67,5.0,10.0,63,0.00,,,0.00,232.000000,,2013-03-24 19:12:00,
2013-03-24 14:32:00,28.0,16.0,-100.00,NE,51,4.0,9.0,60,0.00,,,0.00,226.000000,,2013-03-24 19:32:00,
2013-03-24 14:43:00,28.0,16.0,-100.00,NE,51,4.0,9.0,60,0.00,,,0.00,226.000000,,2013-03-24 19:43:00,
2013-03-24 14:53:00,28.0,16.0,-100.00,NE,51,4.0,9.0,60,0.00,,,0.00,226.000000,,2013-03-24 19:53:00,
2013-03-24 15:03:00,28.0,16.0,-100.00,NE,51,4.0,9.0,60,0.00,,,0.00,226.000000,,2013-03-24 20:03:00,
2013-03-24 15:12:00,28.0,16.0,-100.00,NE,51,4.0,9.0,60,0.00,,,0.00,226.000000,,2013-03-24 20:12:00,
2013-03-24 15:43:00,28.0,16.0,-100.00,NNE,12,4.0,9.0,60,0.00,,,0.00,229.000000,,2013-03-24 20:43:00,
2013-03-24 15:53:00,28.0,16.0,-100.00,NNE,12,4.0,9.0,60,0.00,,,0.00,229.000000,,2013-03-24 20:53:00,
2013-03-24 16:02:00,28.0,16.0,-100.00,NNE,12,4.0,9.0,60,0.00,,,0.00,229.000000,,2013-03-24 21:02:00,
2013-03-24 16:12:00,28.0,16.0,-100.00,NNE,12,4.0,9.0,60,0.00,,,0.00,229.000000,,2013-03-24 21:12:00,
2013-03-24 16:13:00,29.0,15.0,-100.00,NNE,16,4.0,12.0,56,0.00,,,0.00,239.000000,,2013-03-24 21:13:00,
2013-03-24 16:33:00,29.0,15.0,-100.00,NNE,16,4.0,12.0,56,0.00,,,0.00,239.000000,,2013-03-24 21:33:00,
2013-03-24 16:43:00,29.0,15.0,-100.00,NNE,16,4.0,12.0,56,0.00,,,0.00,239.000000,,2013-03-24 21:43:00,
2013-03-24 16:53:00,29.0,15.0,-100.00,NNE,16,4.0,12.0,56,0.00,,,0.00,239.000000,,2013-03-24 21:53:00,
2013-03-24 17:03:00,29.0,15.0,-100.00,NNE,16,4.0,12.0,56,0.00,,,0.00,239.000000,,2013-03-24 22:03:00,
2013-03-24 17:33:00,31.0,15.0,-100.00,North,353,6.0,14.0,50,0.00,,,0.00,264.000000,,2013-03-24 22:33:00,
2013-03-24 17:43:00,31.0,15.0,-100.00,North,353,6.0,14.0,50,0.00,,,0.00,264.000000,,2013-03-24 22:43:00,
2013-03-24 17:52:00,31.0,15.0,-100.00,North,353,6.0,14.0,50,0.00,,,0.00,264.000000,,2013-03-24 22:52:00,
2013-03-24 18:03:00,31.0,15.0,-100.00,North,353,6.0,14.0,50,0.00,,,0.00,264.000000,,2013-03-24 23:03:00,
2013-03-24 18:12:00,31.0,15.0,-100.00,North,353,6.0,14.0,50,0.00,,,0.00,264.000000,,2013-03-24 23:12:00,
2013-03-24 18:32:00,30.0,13.0,-100.00,North,357,6.0,11.0,49,0.00,,,0.00,194.000000,,2013-03-24 23:32:00,
2013-03-24 18:42:00,30.0,13.0,-100.00,North,357,6.0,11.0,49,0.00,,,0.00,194.000000,,2013-03-24 23:42:00,
2013-03-24 18:53:00,30.0,13.0,-100.00,North,357,6.0,11.0,49,0.00,,,0.00,194.000000,,2013-03-24 23:53:00,
2013-03-24 19:02:00,30.0,13.0,-100.00,North,357,6.0,11.0,49,0.00,,,0.00,194.000000,,2013-03-25 00:02:00,
2013-03-24 19:12:00,30.0,13.0,-100.00,North,357,6.0,11.0,49,0.00,,,0.00,194.000000,,2013-03-25 00:12:00,
2013-03-24 20:42:00,25.0,13.0,-100.00,NNW,330,5.0,8.0,59,-99.99,,,0.00,3.000000,,2013-03-25 01:42:00,
2013-03-24 20:52:00,25.0,13.0,-100.00,NNW,330,5.0,8.0,59,-99.99,,,0.00,3.000000,,2013-03-25 01:52:00,
2013-03-24 21:02:00,25.0,13.0,-100.00,NNW,330,5.0,8.0,59,-99.99,,,0.00,3.000000,,2013-03-25 02:02:00,
2013-03-24 21:12:00,25.0,13.0,-100.00,NNW,330,5.0,8.0,59,-99.99,,,0.00,3.000000,,2013-03-25 02:12:00,
2013-03-24 21:13:00,24.0,12.0,-100.00,NW,326,6.0,9.0,59,0.00,,,0.00,0.000000,,2013-03-25 02:13:00,
2013-03-24 21:43:00,24.0,12.0,-100.00,NW,326,6.0,9.0,59,0.00,,,0.00,0.000000,,2013-03-25 02:43:00,
2013-03-24 21:52:00,24.0,12.0,-100.00,NW,326,6.0,9.0,59,0.00,,,0.00,0.000000,,2013-03-25 02:52:00,
2013-03-24 22:02:00,24.0,12.0,-100.00,NW,326,6.0,9.0,59,0.00,,,0.00,0.000000,,2013-03-25 03:02:00,
2013-03-24 22:34:00,22.0,11.0,-100.00,NNW,338,6.0,9.0,62,0.00,,,0.00,0.000000,,2013-03-25 03:34:00,
2013-03-24 22:43:00,22.0,11.0,-100.00,NNW,338,6.0,9.0,62,0.00,,,0.00,0.000000,,2013-03-25 03:43:00,
2013-03-24 22:53:00,22.0,11.0,-100.00,NNW,338,6.0,9.0,62,0.00,,,0.00,0.000000,,2013-03-25 03:53:00,
2013-03-24 23:02:00,22.0,11.0,-100.00,NNW,338,6.0,9.0,62,0.00,,,0.00,0.000000,,2013-03-25 04:02:00,
2013-03-24 23:12:00,22.0,11.0,-100.00,NNW,338,6.0,9.0,62,0.00,,,0.00,0.000000,,2013-03-25 04:12:00,
2013-03-24 23:43:00,21.0,10.0,-100.00,NNW,343,5.0,9.0,63,0.00,,,0.00,0.000000,,2013-03-25 04:43:00,
2013-03-24 23:52:00,21.0,10.0,-100.00,NNW,343,5.0,9.0,63,0.00,,,0.00,0.000000,,2013-03-25 04:52:00,